Change the Weather History Date:

Saturday, March 9, 2013

  Actual Average Record
Temperature  
Mean Temperature 54 °F 58 °F  
Max Temperature 63 °F 69 °F 87 °F (1989)
Min Temperature 45 °F 48 °F 27 °F (1964)
Degree Days  
Heating Degree Days 11 7  
Month to date heating degree days 52 71  
Since 1 July heating degree days 1689 1762  
Cooling Degree Days 0 1  
Month to date cooling degree days 5 1  
Year to date cooling degree days 5 2  
Growing Degree Days 4 (Base 50)    
Moisture  
Dew Point 34 °F    
Average Humidity 55    
Maximum Humidity 83    
Minimum Humidity 27    
Precipitation  
Precipitation T in 0.01 in 0.03 in (1962)
Month to date precipitation 0.15 0.18  
Year to date precipitation 0.58 1.48  
Snow  
Snow 0.00 in 0.00 in T in (1962)
Month to date snowfall 0.0 0.0  
Since 1 July snowfall T 0.3  
Snow Depth 0.00 in    
Sea Level Pressure  
Sea Level Pressure 29.95 in    
Wind  
Wind Speed 7 mph (WNW)    
Max Wind Speed 20 mph    
Max Gust Speed 24 mph    
Visibility 10 miles    
Events Rain    
T = Trace of Precipitation, MM = Missing Value Source: NWS Daily Summary

Daily Weather History Graph

Daily Weather History Graph

Search for Another Location

Airport or City:

Trip Planner

Search our weather history database for the weather conditions in past years. The results will help you decide how hot, cold, wet, or windy it might be!

Date:

Astronomy

Mar. 09, 2013 Rise Set
Actual Time 5:59 AM PST 5:43 PM PST
Civil Twilight 5:33 AM PST 6:08 PM PST
Nautical Twilight 5:04 AM PST 6:38 PM PST
Astronomical Twilight 4:34 AM PST 7:08 PM PST
Moon 4:23 AM PST (3/9) 3:52 PM PST (3/9)
Length of Visible Light 12h 34m
Length of Day
11h 43m
Waning Crescent, 5% of the Moon is Illuminated
Mar 9
Waning Crescent
Mar 11
New
Mar 19
First Quarter
Mar 27
Full
Apr 2
Last Quarter

Hourly Weather History & Observations

Time (PST) Temp. Windchill Dew Point Humidity Pressure Visibility Wind Dir Wind Speed Gust Speed Precip Events Conditions
12:56 AM 45.0 °F 41.8 °F 39.9 °F 82% 29.81 in 10.0 mi WSW 5.8 mph - 0.00 in Rain Light Rain
1:56 AM 45.0 °F 40.6 °F 39.9 °F 82% 29.81 in 10.0 mi SSW 8.1 mph - 0.00 in   Overcast
2:56 AM 46.0 °F 44.8 °F 39.9 °F 79% 29.79 in 10.0 mi West 3.5 mph - N/A   Mostly Cloudy
3:56 AM 44.6 °F 42.2 °F 39.2 °F 81% 29.81 in 10.0 mi SSW 4.6 mph - N/A   Mostly Cloudy
4:56 AM 46.0 °F 43.1 °F 39.0 °F 76% 29.83 in 10.0 mi SSW 5.8 mph - N/A   Mostly Cloudy
5:56 AM 46.0 °F 41.9 °F 37.9 °F 73% 29.86 in 10.0 mi South 8.1 mph - N/A   Overcast
6:56 AM 46.0 °F 42.5 °F 36.0 °F 68% 29.88 in 10.0 mi South 6.9 mph - N/A   Mostly Cloudy
7:56 AM 48.0 °F - 37.0 °F 66% 29.91 in 10.0 mi South 9.2 mph - N/A   Mostly Cloudy
8:56 AM 51.1 °F - 36.0 °F 56% 29.92 in 10.0 mi South 4.6 mph - N/A   Mostly Cloudy
9:56 AM 55.0 °F - 34.0 °F 45% 29.94 in 10.0 mi NNW 11.5 mph 17.3 mph N/A   Mostly Cloudy
10:56 AM 55.0 °F - 33.1 °F 43% 29.95 in 10.0 mi North 15.0 mph 19.6 mph N/A   Mostly Cloudy
11:56 AM 57.0 °F - 35.1 °F 44% 29.96 in 10.0 mi NNW 10.4 mph - N/A   Overcast
12:56 PM 60.1 °F - 30.9 °F 33% 29.95 in 10.0 mi NW 9.2 mph 18.4 mph N/A   Mostly Cloudy
1:56 PM 60.1 °F - 30.0 °F 32% 29.95 in 10.0 mi NNW 12.7 mph 21.9 mph N/A   Mostly Cloudy
2:56 PM 61.0 °F - 30.0 °F 31% 29.96 in 10.0 mi North 9.2 mph 19.6 mph N/A   Mostly Cloudy
3:56 PM 62.1 °F - 28.0 °F 28% 29.96 in 10.0 mi NNW 11.5 mph 18.4 mph N/A   Mostly Cloudy
4:56 PM 62.1 °F - 28.0 °F 28% 29.97 in 10.0 mi NW 9.2 mph 16.1 mph N/A   Mostly Cloudy
5:56 PM 60.1 °F - 28.0 °F 30% 30.00 in 10.0 mi WNW 6.9 mph - N/A   Mostly Cloudy
6:56 PM 60.1 °F - 28.9 °F 31% 30.03 in 10.0 mi West 9.2 mph - N/A   Mostly Cloudy
7:56 PM 55.0 °F - 36.0 °F 49% 30.06 in 10.0 mi ESE 5.8 mph - N/A   Mostly Cloudy
8:56 PM 54.0 °F - 37.9 °F 55% 30.09 in 10.0 mi NE 3.5 mph - N/A   Mostly Cloudy
9:56 PM 54.0 °F - 35.1 °F 49% 30.11 in 10.0 mi ENE 4.6 mph - N/A   Mostly Cloudy
10:56 PM 53.1 °F - 35.1 °F 50% 30.12 in 10.0 mi NE 3.5 mph - N/A   Partly Cloudy
11:56 PM 53.1 °F - 28.0 °F 38% 30.13 in 10.0 mi Calm Calm - N/A   Clear